Location: Allen Fire Department Station 4
(33.1073°N, 96.6988°W)
Time: 22:41:44
(UTC+00:00)

Cosmos 1763 Rocket - Pass Details

Date: 04 July 2022
Orbit: 732 x 780 km, 74.0° (Epoch: 18 August)

Event Time Altitude Azimuth Distance (km) Brightness Sun altitude
Exits shadow 06:21:36 17° 60° (ENE) 1,856 5.7 -34.0°
Drops below altitude 10° 06:23:15 10° 46° (NE) 2,306 6.4 -34.0°
Sets 06:26:01 0° 33° (NNE) 3,245 7.5 -34.0°
